Terminal Aerodrome Forecast
Issued by NWS

Home | Current Version | Previous Version | Text Only | Print | Product List | Glossary On
Versions: 1 2 3 4 5 6 7 8 9 10 11 12 13
000
FTUS44 KCRP 210500
TAFALI
TAF
KALI 210537Z 2106/2206 07004KT P6SM SCT014 BKN200
      TEMPO 2110/2114 4SM BR BKN014
     FM211400 07008KT P6SM VCSH SCT015 BKN025
      TEMPO 2114/2116 BKN015
     FM211800 09012KT P6SM SCT035
     FM220000 08005KT P6SM FEW015=

USA.gov is the U.S. government's official web portal to all federal, state and local government web resources and services.